Lebanon, NH

7:27 PM EST on December 07, 2019 (GMT -0500)
Lebanon Municipal

Weather History for KLEB - November, 2019

Change the Weather History Date:

Monday, November 11, 2019

  Actual Average Record
Temperature  
Mean Temperature 34 °F -  
Max Temperature 39 °F 47 °F 69 °F (2002)
Min Temperature 30 °F 32 °F 10 °F (1956)
Degree Days  
Heating Degree Days 30    
Moisture  
Dew Point 28 °F    
Average Humidity 78    
Maximum Humidity 86    
Minimum Humidity 62    
Precipitation  
Precipitation 0.12 in - - ()
Sea Level Pressure  
Sea Level Pressure 30.09 in    
Wind  
Wind Speed 4 mph ()    
Max Wind Speed 9 mph    
Max Gust Speed -    
Visibility 6.0 miles    
Events Rain , Snow    
Averages and records for this station are not official NWS values.
T = Trace of Precipitation, MM = Missing Value Source: Averaged Metar Reports

Daily Weather History Graph

Daily Weather History Graph

Search for Another Location

Airport or City:

Astronomy

Nov. 11, 2019 Rise Set
Actual Time 6:37 AM EST 4:28 PM EST
Civil Twilight 6:07 AM EST 4:58 PM EST
Nautical Twilight 5:32 AM EST 5:33 PM EST
Astronomical Twilight 4:58 AM EST 6:06 PM EST
Moon 4:25 PM EST (11/11) 5:22 AM EST (11/11)
Length of Visible Light 10h 51m
Length of Day
9h 50m
Waxing Gibbous, 99% of the Moon is Illuminated
Nov 11
Waxing Gibbous
Nov 12
Full
Nov 19
Last Quarter
Nov 26
New
Dec 4
First Quarter

Hourly Weather History & Observations

Time (EST) Temp. Windchill Dew Point Humidity Pressure Visibility Wind Dir Wind Speed Gust Speed Precip Events Conditions
12:53 AM 39.0 °F - 30.0 °F 70% 30.00 in 10.0 mi Calm Calm - N/A   Overcast
1:53 AM 39.9 °F - 30.0 °F 68% 30.01 in 10.0 mi Calm Calm - N/A   Overcast
2:53 AM 39.9 °F - 30.9 °F 70% 30.01 in 10.0 mi Calm Calm - N/A   Overcast
3:53 AM 39.9 °F - 30.0 °F 68% 30.04 in 10.0 mi Calm Calm - N/A   Overcast
4:53 AM 39.9 °F 35.8 °F 30.9 °F 70% 30.07 in 10.0 mi NNW 5.8 mph - N/A   Overcast
5:22 AM 39.0 °F 33.4 °F 30.9 °F 73% 30.07 in 10.0 mi NNW 8.1 mph - N/A   Overcast
5:53 AM 37.9 °F 32.1 °F 32.0 °F 79% 30.10 in 10.0 mi North 8.1 mph - N/A   Overcast
6:10 AM 37.0 °F 30.4 °F 30.9 °F 79% 30.08 in 10.0 mi North 9.2 mph - N/A   Overcast
6:48 AM 35.6 °F 29.2 °F 30.2 °F 81% 30.12 in 4.0 mi NNE 8.1 mph - 0.00 in Rain Light Rain
6:53 AM 36.0 °F 29.6 °F 30.0 °F 79% 30.13 in 4.0 mi NNE 8.1 mph - 0.00 in Rain Light Rain
7:01 AM 36.0 °F 29.6 °F 30.0 °F 79% 30.12 in 4.0 mi North 8.1 mph - 0.00 in Rain Light Rain
7:16 AM 35.1 °F 30.1 °F 30.0 °F 82% 30.13 in 4.0 mi North 5.8 mph - 0.00 in   Light Drizzle
7:36 AM 35.1 °F 29.3 °F 30.0 °F 82% 30.14 in 5.0 mi NNW 6.9 mph - 0.00 in   Haze
7:44 AM 35.1 °F 32.2 °F 30.0 °F 82% 30.14 in 5.0 mi NNW 3.5 mph - 0.00 in   Haze
7:53 AM 35.1 °F 31.0 °F 30.0 °F 82% 30.16 in 5.0 mi North 4.6 mph - 0.00 in   Haze
8:02 AM 35.1 °F 29.3 °F 30.0 °F 82% 30.15 in 9.0 mi North 6.9 mph - N/A   Overcast
8:20 AM 35.1 °F 30.1 °F 28.9 °F 78% 30.15 in 10.0 mi North 5.8 mph - N/A   Overcast
8:53 AM 35.1 °F 32.2 °F 28.9 °F 78% 30.17 in 10.0 mi NNE 3.5 mph - N/A   Overcast
9:15 AM 35.1 °F 31.0 °F 28.9 °F 78% 30.16 in 10.0 mi North 4.6 mph - N/A   Overcast
9:53 AM 36.0 °F 32.1 °F 28.9 °F 76% 30.20 in 10.0 mi North 4.6 mph - N/A   Overcast
10:53 AM 36.0 °F 30.3 °F 26.1 °F 67% 30.20 in 10.0 mi North 6.9 mph - N/A   Overcast
11:53 AM 36.0 °F 29.6 °F 25.0 °F 64% 30.17 in 10.0 mi NNE 8.1 mph - N/A   Overcast
12:53 PM 36.0 °F 31.1 °F 24.1 °F 62% 30.14 in 10.0 mi NE 5.8 mph - N/A   Overcast
1:53 PM 35.1 °F 30.1 °F 25.0 °F 67% 30.15 in 2.0 mi NE 5.8 mph - 0.00 in Snow Light Snow
2:28 PM 33.1 °F 26.1 °F 27.0 °F 78% 30.13 in 0.8 mi NNE 8.1 mph - 0.02 in Snow Light Snow
2:36 PM 33.1 °F 26.9 °F 27.0 °F 78% 30.13 in 1.5 mi NNE 6.9 mph - 0.03 in Snow Light Snow
2:50 PM 32.0 °F 26.4 °F 26.6 °F 80% 30.13 in 1.5 mi NNE 5.8 mph - 0.03 in Snow Light Snow
2:51 PM 32.0 °F 25.6 °F 27.0 °F 82% 30.15 in 1.5 mi NNE 6.9 mph - 0.03 in Snow Light Snow
3:05 PM 32.0 °F 24.2 °F 27.0 °F 82% 30.13 in 2.0 mi NE 9.2 mph - 0.01 in Snow Light Snow
3:53 PM 30.9 °F 23.5 °F 26.1 °F 82% 30.13 in 2.0 mi NE 8.1 mph - 0.03 in Snow Light Snow
4:28 PM 30.9 °F 27.5 °F 26.1 °F 82% 30.11 in 2.0 mi NNW 3.5 mph - 0.01 in Snow Light Snow
4:53 PM 30.9 °F 27.5 °F 26.1 °F 82% 30.14 in 2.0 mi North 3.5 mph - 0.02 in Snow Light Snow
5:00 PM 30.9 °F 26.2 °F 26.1 °F 82% 30.11 in 5.0 mi North 4.6 mph - 0.01 in Snow Light Snow
5:23 PM 30.9 °F 24.3 °F 26.1 °F 82% 30.10 in 7.0 mi NE 6.9 mph - 0.02 in Snow Light Snow
5:53 PM 30.9 °F 26.2 °F 26.1 °F 82% 30.12 in 8.0 mi NNE 4.6 mph - 0.03 in   Overcast
6:53 PM 30.9 °F 24.3 °F 25.0 °F 79% 30.10 in 10.0 mi NNE 6.9 mph - 0.01 in   Overcast
7:53 PM 30.9 °F 25.2 °F 26.1 °F 82% 30.07 in 4.0 mi NNW 5.8 mph - N/A   Haze
8:07 PM 30.0 °F 23.2 °F 25.0 °F 82% 30.04 in 4.0 mi North 6.9 mph - N/A   Haze
8:53 PM 30.9 °F 27.5 °F 26.1 °F 82% 30.04 in 4.0 mi North 3.5 mph - N/A   Haze
9:31 PM 30.9 °F 25.2 °F 26.1 °F 82% 30.00 in 4.0 mi North 5.8 mph - 0.00 in Rain Light Freezing Rain
9:47 PM 30.2 °F 23.4 °F 26.6 °F 86% 29.99 in 5.0 mi North 6.9 mph - 0.00 in   Overcast
9:53 PM 30.9 °F 25.2 °F 26.1 °F 82% 30.01 in 5.0 mi NNE 5.8 mph - 0.00 in   Haze
10:08 PM 30.9 °F 24.3 °F 26.1 °F 82% 29.98 in 5.0 mi North 6.9 mph - N/A   Haze
10:53 PM 30.9 °F - 27.0 °F 85% 29.97 in 4.0 mi Calm Calm - N/A   Overcast
11:09 PM 30.9 °F 27.5 °F 27.0 °F 85% 29.94 in 4.0 mi NW 3.5 mph - N/A   Overcast
11:53 PM 30.9 °F 26.2 °F 27.0 °F 85% 29.91 in 4.0 mi North 4.6 mph - N/A   Overcast